Regional Weather Roundup
Issued by NWS

Home | Current Version | Previous Version | Text Only | Print | Product List | Glossary Off
Versions: 1 2 3 4 5 6 7 8 9 10 11 12 13 14 15 16 17 18 19 20 21 22 23 24 25 26 27 28 29 30 31 32 33 34 35 36 37 38 39 40 41 42 43 44 45 46 47 48 49 50

082
ASUS43 KBIS 262102
RWRND

NORTH DAKOTA REGIONAL WEATHER ROUNDUP
NATIONAL WEATHER SERVICE BISMARCK ND
400 PM CDT THU APR 26 2018

NOTE: "FAIR" INDICATES FEW OR NO CLOUDS BELOW 12,000 FEET WITH NO
SIGNIFICANT WEATHER AND/OR OBSTRUCTIONS TO VISIBILITY.


NDZ001>003-009>011-017-262200-
NORTHWEST NORTH DAKOTA

CITY           SKY/WX    TMP DP  RH WIND       PRES   REMARKS
WILLISTON      FAIR      69  27  20 W17G31    30.04F
MINOT          FAIR      69  25  19 W25G32    29.98F
MINOT AFB      FAIR      68  25  20 NW23G36   29.95F
$$

NDZ018>021-031>035-040>046-262200-
SOUTHWEST NORTH DAKOTA

CITY           SKY/WX    TMP DP  RH WIND       PRES   REMARKS
BISMARCK       FAIR      67  24  19 NW16G22   30.06F
DICKINSON      FAIR      65  26  23 W18G26    30.07F
GARRISON         N/A     65  25  22 W17G32    30.03F
HETTINGER ARPT FAIR      63  28  26 W16G24    30.13F
$$

NDZ004>008-012>016-024-026-027-054-262200-
NORTHEAST NORTH DAKOTA

CITY           SKY/WX    TMP DP  RH WIND       PRES   REMARKS
GRAND FORKS    FAIR      60  32  34 NW20G25   29.99F
GRND FRKS AFB  FAIR      60  27  28 NW18G24   29.99F
DEVILS LAKE    FAIR      61  25  25 NW13      30.00F
$$

NDZ022-023-025-028>030-036>039-047>053-262200-
SOUTHEAST NORTH DAKOTA

CITY           SKY/WX    TMP DP  RH WIND       PRES   REMARKS
FARGO          FAIR      59  30  33 NW18G30   30.02F
JAMESTOWN      FAIR      63  24  22 NW23G30   30.01F
$$





USA.gov is the U.S. government's official web portal to all federal, state and local government web resources and services.